Wind_Speed
47 48 50 50 50 50 50 51 51 52 52 55 54 57 61 63 59 59 61 60 57 56 59 66 62 54 49 45 42 39 37 37 36 36 35 33 30 30 31 31 31 31 30
44 45 45 45 45 47 48 50 51 53 54 53 51 57 65 63 53 57 64 67 60 55 58 62 69 63 55 50 45 41 39 37 36 34 31 29 31 31 30 32 33 32 33
38 40 41 42 44 45 46 47 46 48 48 47 49 50 53 59 61 66 71 66 57 52 51 61 63 58 56 48 46 43 38 36 33 32 30 30 30 31 32 33 35 33 31
40 41 42 42 42 43 43 43 43 44 44 44 45 47 48 47 51 56 59 60 57 51 47 48 36 48 54 45 44 49 44 39 36 35 35 36 35 33 30 30 34 34 30
38 39 39 38 37 37 36 36 38 40 41 40 42 45 49 49 49 50 50 49 49 49 44 43 31 32 42 45 39 49 55 51 45 42 38 36 35 33 28 27 29 31 30
31 31 31 31 32 33 34 35 38 40 42 42 42 44 47 49 49 48 47 45 43 45 43 39 41 39 37 38 42 47 47 52 48 41 35 35 33 30 27 26 26 28 29
29 30 31 32 34 37 38 39 40 41 41 43 45 47 48 50 51 49 45 42 42 43 42 40 38 42 43 40 41 41 39 40 38 36 35 34 30 28 27 27 26 26 28
31 32 32 32 34 37 39 40 39 39 42 44 47 49 48 51 52 48 40 33 32 35 32 28 31 37 34 33 35 35 37 36 34 34 35 32 29 28 28 28 27 26 29
33 34 34 34 36 37 38 38 38 40 44 47 49 45 47 47 46 43 36 28 26 26 24 25 27 29 25 25 29 32 35 34 34 34 33 30 28 29 30 30 29 29 31
34 35 36 36 37 36 37 38 39 41 45 44 42 41 38 36 37 37 38 32 25 21 19 22 20 18 21 26 29 29 30 32 33 33 30 28 27 30 31 31 31 30 30
36 37 38 38 38 37 36 37 38 41 40 37 35 29 29 27 32 37 35 32 26 22 21 21 18 21 25 29 31 30 28 28 28 29 28 30 31 30 32 31 33 32 31
36 36 37 38 37 35 31 34 37 38 37 36 29 25 21 22 23 23 23 21 28 29 26 22 23 26 26 27 28 28 27 27 27 28 29 30 30 30 32 34 35 36 36
34 35 35 34 33 30 28 32 31 32 36 29 16 17 17 16 18 20 24 28 29 28 27 25 26 27 24 23 23 24 26 27 28 29 29 30 30 32 34 35 36 39 41
30 31 31 30 29 26 27 27 27 30 34 29 35 29 23 19 17 22 27 33 34 30 24 23 23 24 23 23 24 24 25 26 28 29 30 30 31 33 33 35 37 39 41
29 31 30 27 25 24 25 24 26 31 35 32 31 31 28 25 17 10 17 24 25 25 20 19 19 19 21 23 23 23 25 27 29 29 29 30 31 33 33 34 35 36 38
27 29 25 23 22 21 21 22 24 30 32 27 22 20 21 17 15 11 9 12 15 17 19 21 18 19 21 21 22 23 25 25 26 28 29 31 32 34 34 34 34 33 34
26 25 22 21 19 16 16 19 22 26 26 20 15 15 18 21 18 16 15 15 18 19 20 21 20 19 19 20 21 20 21 22 24 27 30 31 32 33 34 34 34 35 35
25 25 23 20 18 16 14 15 16 17 18 16 12 11 14 17 18 16 18 20 17 17 18 19 17 17 16 15 15 15 17 19 21 23 25 28 30 31 31 32 32 34 35
25 25 24 21 18 17 15 13 13 14 14 14 13 12 13 14 16 17 21 22 22 21 18 20 18 17 15 15 15 16 18 19 20 21 23 25 27 28 29 29 31 32 33
24 24 24 22 18 15 14 12 9 8 10 12 14 17 18 20 21 20 22 26 26 23 20 18 17 17 17 17 17 17 17 19 21 23 25 26 26 27 26 26 26 27 28
25 23 23 24 19 14 13 11 8 6 6 8 10 14 16 17 16 16 20 23 22 20 19 16 16 17 15 15 16 17 21 23 22 20 19 19 19 21 22 25 28 31 34
28 22 22 23 20 19 18 17 14 11 10 12 12 13 13 13 12 12 13 13 11 11 10 9 10 12 13 14 18 20 20 16 14 15 15 16 18 22 26 29 31 34 37
31 25 25 25 22 21 20 20 19 16 15 14 12 11 10 9 8 7 6 7 9 9 7 8 10 11 13 16 16 15 14 13 14 16 17 18 22 25 24 24 26 30 32
36 30 27 26 25 25 24 22 20 18 17 14 11 8 6 5 5 5 5 7 8 9 9 10 11 12 13 13 13 14 13 14 16 16 17 19 22 21 21 24 25 26 26
37 33 30 29 29 29 27 26 25 21 19 16 13 10 7 6 5 6 7 7 8 9 9 10 11 12 14 15 15 13 12 14 14 14 17 19 19 19 21 23 23 22 20
39 35 33 33 29 29 29 27 25 23 21 20 17 16 13 11 10 10 9 9 10 10 11 11 12 13 13 13 12 11 12 13 13 14 16 16 17 19 22 23 21 19 20
Wind_Direction
272 272 273 273 273 273 274 274 274 272 271 270 268 266 262 260 257 263 265 264 265 268 267 267 262 259 258 256 253 251 249 252 257 263 268 274 278 279 278 278 278 279 277
270 271 272 273 273 274 274 273 273 275 275 275 280 277 261 260 261 268 271 267 267 273 271 278 267 254 253 249 246 250 250 254 258 262 267 271 277 279 278 279 279 278 277
270 271 272 273 272 273 274 276 275 276 278 282 283 282 270 267 268 272 268 269 275 283 283 282 264 245 247 246 243 245 245 254 257 264 269 274 277 278 279 280 279 277 274
273 274 274 274 274 275 275 275 276 277 278 278 278 276 274 272 270 271 268 270 275 277 284 275 247 231 242 246 246 239 238 246 254 261 272 279 277 275 273 274 276 278 274
276 277 279 279 279 279 280 280 280 281 280 277 274 273 273 273 273 273 272 276 278 279 280 268 230 249 249 248 245 252 249 244 251 263 271 274 276 275 271 266 270 275 276
279 280 282 283 283 285 286 286 285 285 283 280 276 274 277 279 277 275 277 278 278 278 272 258 265 266 257 250 252 253 248 247 252 260 265 268 271 270 266 266 269 272 275
287 289 290 291 291 291 292 292 291 290 288 286 282 277 278 277 275 273 277 278 276 277 270 265 262 256 251 243 240 239 242 247 252 259 265 269 267 264 266 267 269 273 274
289 289 289 291 291 291 292 293 293 293 292 293 289 281 275 273 272 271 272 272 271 271 263 251 239 227 232 234 229 231 242 247 252 259 264 266 264 264 267 270 270 271 274
286 286 287 289 292 293 294 294 297 299 300 297 291 282 272 267 266 263 260 256 252 253 252 244 237 237 239 235 232 236 242 247 251 257 262 262 264 266 265 266 269 269 270
287 289 292 293 296 297 295 298 306 307 306 298 286 277 266 263 260 253 251 248 244 245 240 234 237 237 237 236 235 235 244 250 252 255 257 261 262 263 264 264 268 273 275
288 292 296 299 302 302 298 303 308 307 307 296 285 270 254 250 243 238 233 243 244 233 232 247 243 241 243 243 243 246 248 248 250 254 258 260 262 264 265 266 268 271 273
287 292 297 300 303 302 301 309 309 304 304 299 280 248 219 219 210 214 220 238 237 227 233 240 245 247 248 249 244 244 248 250 252 256 259 262 264 266 267 268 268 269 270
287 293 299 302 304 303 307 313 309 306 304 289 258 238 238 237 230 246 255 243 239 240 237 238 248 252 251 250 247 248 250 254 257 259 261 264 267 267 268 270 270 270 269
285 292 299 304 306 303 311 312 304 305 306 285 257 285 287 277 256 246 238 232 236 236 242 251 253 251 249 250 251 252 254 258 262 265 266 267 269 271 274 274 273 271 272
281 287 293 300 304 304 314 309 303 307 307 297 286 284 277 283 278 263 247 238 242 243 249 258 262 263 258 254 256 259 263 266 267 267 268 271 274 276 277 276 274 273 274
281 281 286 298 301 304 318 313 312 320 316 300 278 275 273 280 282 284 278 260 253 252 258 261 263 264 263 262 262 264 268 270 271 273 275 275 274 275 274 275 277 277 278
279 277 284 295 297 298 315 316 318 331 328 313 278 266 267 280 285 286 288 281 269 262 261 264 266 269 268 270 270 270 272 274 275 275 276 276 276 275 276 277 277 277 277
269 269 282 289 291 285 297 308 319 332 332 315 287 263 264 276 283 287 289 289 283 274 266 262 266 269 275 277 274 273 272 274 275 276 278 279 280 282 281 280 280 280 279
274 263 278 284 284 277 276 286 300 311 316 310 301 287 274 268 264 265 269 273 271 272 274 265 260 264 263 259 262 268 273 275 276 278 280 281 282 284 284 284 284 284 284
285 258 270 279 275 271 263 265 275 288 299 302 302 295 287 278 271 266 262 264 269 271 269 264 261 251 252 257 260 267 273 277 280 283 284 285 287 288 289 290 288 286 286
295 257 263 271 262 254 249 240 238 254 289 297 298 298 294 289 285 274 264 265 263 256 249 249 243 244 253 258 262 262 272 277 276 279 284 286 289 291 290 289 289 288 288
299 266 255 263 255 243 243 242 236 245 274 286 288 289 290 292 286 272 261 253 239 239 224 225 244 254 257 259 262 265 271 273 274 282 284 284 290 295 296 296 296 293 288
297 280 256 250 250 246 244 243 238 250 268 275 282 287 287 274 260 240 207 203 219 233 238 248 256 255 255 257 259 260 262 266 275 281 285 293 298 299 298 298 298 294 289
289 285 271 256 246 248 245 242 240 248 257 258 263 277 283 260 228 210 190 198 217 228 236 247 254 257 255 254 258 262 269 277 283 284 288 298 304 305 305 307 307 304 297
280 279 274 269 248 246 247 245 245 245 245 245 247 247 248 245 237 226 219 215 221 232 238 243 250 256 263 265 264 266 278 287 283 285 300 312 319 324 325 321 314 308 302
275 274 272 273 252 238 241 240 239 238 237 239 241 242 240 239 240 242 237 234 232 239 250 255 258 258 259 259 265 276 288 281 279 288 302 317 329 336 338 334 323 308 297
Height
5877 5876 5875 5874 5874 5873 5873 5872 5870 5867 5865 5864 5864 5862 5860 5856 5852 5853 5854 5853 5854 5855 5855 5853 5849 5847 5848 5850 5851 5854 5856 5855 5854 5855 5855 5855 5853 5851 5850 5847 5846 5844 5843
5867 5866 5865 5865 5865 5864 5863 5862 5860 5857 5854 5852 5850 5846 5845 5846 5842 5842 5845 5844 5845 5844 5840 5835 5833 5834 5834 5836 5839 5843 5846 5847 5845 5845 5847 5848 5845 5842 5842 5839 5837 5837 5836
5859 5858 5857 5856 5856 5855 5853 5852 5849 5846 5841 5839 5837 5831 5830 5833 5832 5832 5835 5835 5831 5829 5824 5814 5811 5817 5820 5825 5828 5833 5836 5837 5836 5836 5838 5840 5837 5835 5834 5832 5829 5827 5829
5852 5850 5848 5847 5846 5845 5843 5841 5839 5836 5832 5828 5825 5820 5818 5818 5819 5819 5821 5821 5817 5812 5807 5802 5796 5805 5810 5816 5818 5821 5824 5827 5827 5826 5827 5829 5829 5827 5826 5824 5821 5818 5819
5843 5840 5838 5837 5835 5834 5832 5830 5827 5824 5821 5819 5815 5811 5808 5808 5808 5808 5807 5805 5801 5799 5799 5797 5801 5803 5802 5806 5807 5810 5812 5815 5817 5819 5818 5817 5817 5817 5818 5816 5813 5811 5808
5833 5831 5828 5827 5825 5823 5820 5818 5814 5811 5809 5806 5804 5799 5795 5792 5792 5792 5790 5788 5786 5785 5786 5789 5791 5791 5792 5795 5798 5800 5800 5804 5808 5810 5811 5809 5808 5809 5809 5808 5806 5803 5801
5825 5822 5820 5817 5814 5811 5808 5805 5803 5799 5796 5793 5789 5784 5780 5777 5774 5775 5775 5773 5771 5771 5772 5773 5774 5776 5780 5784 5786 5789 5792 5796 5800 5801 5801 5800 5801 5802 5802 5800 5798 5795 5793
5817 5815 5812 5808 5804 5800 5797 5794 5791 5786 5781 5777 5773 5768 5764 5761 5757 5757 5760 5762 5761 5759 5759 5759 5761 5764 5769 5773 5774 5779 5784 5788 5791 5791 5791 5791 5791 5792 5793 5793 5791 5788 5787
5809 5806 5803 5800 5795 5791 5786 5782 5778 5772 5766 5762 5756 5750 5746 5744 5743 5744 5748 5751 5752 5752 5753 5753 5755 5757 5760 5765 5768 5773 5778 5780 5781 5783 5782 5782 5781 5783 5782 5782 5782 5781 5779
5800 5797 5794 5790 5786 5781 5776 5771 5765 5758 5751 5746 5741 5735 5732 5732 5732 5734 5737 5740 5742 5743 5744 5746 5748 5752 5756 5759 5763 5767 5770 5771 5773 5775 5775 5775 5772 5773 5773 5773 5772 5771 5770
5792 5789 5785 5780 5775 5771 5765 5760 5752 5745 5741 5735 5728 5723 5720 5721 5724 5724 5726 5729 5733 5736 5738 5741 5743 5748 5752 5755 5758 5761 5761 5763 5765 5767 5767 5768 5766 5765 5764 5764 5764 5763 5762
5784 5781 5777 5772 5767 5761 5755 5749 5740 5734 5732 5728 5722 5720 5716 5715 5715 5718 5722 5725 5728 5730 5733 5735 5740 5743 5745 5747 5749 5752 5754 5755 5756 5758 5759 5759 5757 5755 5754 5754 5754 5753 5753
5775 5772 5768 5763 5758 5753 5746 5740 5733 5727 5724 5723 5719 5717 5717 5718 5714 5714 5717 5721 5723 5726 5729 5731 5734 5737 5739 5740 5741 5743 5745 5747 5749 5749 5750 5749 5747 5746 5745 5745 5744 5744 5745
5765 5762 5760 5755 5750 5746 5739 5732 5728 5722 5718 5715 5714 5714 5715 5714 5712 5712 5714 5715 5716 5719 5723 5726 5730 5732 5733 5733 5735 5736 5738 5739 5740 5741 5741 5741 5740 5739 5737 5737 5737 5736 5736
5755 5753 5752 5749 5743 5739 5732 5726 5723 5717 5712 5707 5704 5708 5709 5710 5710 5708 5708 5711 5714 5715 5717 5721 5724 5726 5727 5728 5730 5731 5732 5732 5732 5733 5732 5732 5733 5731 5730 5730 5730 5729 5728
5746 5744 5744 5741 5737 5733 5726 5721 5717 5711 5704 5699 5699 5701 5703 5703 5704 5706 5705 5707 5709 5710 5713 5716 5719 5721 5722 5723 5725 5725 5725 5726 5725 5725 5725 5724 5724 5724 5724 5722 5721 5721 5720
5736 5736 5735 5733 5730 5727 5721 5716 5711 5704 5698 5695 5694 5695 5697 5699 5701 5702 5702 5703 5704 5704 5708 5712 5714 5715 5716 5717 5718 5717 5718 5718 5718 5718 5718 5717 5717 5716 5715 5713 5711 5711 5710
5728 5727 5726 5725 5723 5720 5716 5713 5708 5703 5699 5695 5694 5693 5693 5695 5695 5697 5698 5699 5700 5701 5703 5707 5707 5709 5710 5711 5712 5713 5712 5711 5711 5712 5712 5711 5710 5708 5707 5705 5703 5702 5701
5718 5717 5717 5716 5716 5713 5711 5709 5705 5701 5698 5696 5693 5691 5692 5692 5692 5693 5694 5693 5694 5695 5697 5700 5702 5704 5705 5707 5707 5707 5707 5706 5706 5706 5706 5705 5703 5702 5700 5699 5697 5694 5692
5709 5708 5708 5708 5708 5706 5705 5704 5702 5699 5695 5693 5691 5689 5686 5685 5685 5686 5687 5687 5687 5689 5692 5694 5696 5698 5699 5699 5700 5701 5701 5700 5700 5700 5700 5699 5697 5696 5694 5692 5689 5685 5683
5702 5699 5699 5699 5699 5700 5700 5699 5698 5696 5693 5691 5688 5686 5684 5682 5680 5680 5680 5681 5682 5685 5688 5689 5690 5692 5692 5693 5694 5695 5697 5697 5697 5695 5694 5693 5691 5689 5687 5684 5681 5677 5674
5696 5691 5690 5691 5692 5693 5694 5694 5694 5693 5691 5689 5687 5684 5682 5680 5679 5678 5678 5679 5681 5682 5684 5685 5686 5686 5687 5688 5690 5692 5693 5692 5691 5690 5690 5689 5687 5684 5681 5677 5673 5669 5665
5689 5685 5682 5681 5683 5685 5687 5687 5687 5687 5687 5686 5684 5683 5680 5679 5678 5677 5677 5678 5679 5680 5681 5681 5681 5683 5684 5686 5687 5688 5688 5688 5687 5686 5684 5682 5680 5677 5674 5670 5666 5661 5656
5679 5677 5675 5673 5674 5676 5678 5679 5680 5681 5681 5681 5681 5680 5679 5677 5677 5676 5675 5677 5678 5679 5679 5680 5681 5681 5682 5683 5683 5683 5683 5683 5682 5681 5679 5678 5675 5671 5667 5663 5658 5653 5649
5666 5667 5665 5664 5665 5667 5669 5670 5672 5673 5674 5675 5676 5676 5675 5674 5674 5675 5675 5675 5677 5677 5677 5677 5677 5677 5678 5678 5679 5679 5679 5678 5677 5676 5674 5672 5669 5665 5660 5655 5650 5646 5642
5653 5654 5654 5653 5653 5656 5659 5661 5663 5665 5667 5668 5669 5670 5671 5670 5671 5671 5672 5673 5674 5675 5675 5675 5675 5674 5674 5674 5675 5674 5673 5672 5671 5671 5669 5667 5663 5659 5654 5649 5645 5640 5636